Retour au catalogue

STARLINK-30344

ActifCommunicationsVLEO
NORAD 57737·PAYLOAD·🇺🇸 United States

Lancé Sep 1, 2023 depuis Cape Canaveral Space Force Station

Loading…

Prochains Passages (prochaines 24 heures)

TLE

FraisSource: CelesTrak SupGP

Époque: Sep 14, 2026, 21:37 UTC

1 57737C 23131F   26257.90118056  .00014486  00000+0  52466-3 0  2576
2 57737  43.0005 213.2572 0001434 257.8587 306.1556 15.27572820    15

Suivez STARLINK-30344 en temps réel avec AllMySat

Download on the App Store